Regional Weather Roundup
Issued by NWS

Home | Current Version | Previous Version | Text Only | Print | Product List | Glossary On
Versions: 1 2 3 4 5 6 7 8 9 10 11 12 13 14 15 16 17 18 19 20 21 22 23 24 25 26 27 28 29 30 31 32 33 34 35 36 37 38 39 40 41 42 43 44 45 46 47 48 49 50
000
ASCA44 KEWX 210411
RWRMX

LATIN AMERICA AND CARIBBEAN REGIONAL WEATHER ROUNDUP
NATIONAL WEATHER SERVICE AUSTIN/SAN ANTONIO TX
1100 PM CDT MON APR 20 2015

NOTE: "FAIR" INDICATED FEW OR NO CLOUDS BELOW 12,000 FEET WITH NO
SIGNIFICANT WEATHER AND/OR OBSTRUCTIONS TO VISIBILITY.

BAJA CALIFORNIA

CITY           SKY/WX    TMP DP  RH WIND       PRES   REMARKS
LA PAZ         MOCLDY    72  46  40 S9        29.89R
MEXICALI       CLEAR     70  45  40 SE8       29.71R
S.J. DEL CABO  PTCLDY    73  39  29 W2        29.88R
TIJUANA        PTCLDY    59  46  63 NW6       29.93R

NORTHWESTERN MEXICO

CITY           SKY/WX    TMP DP  RH WIND       PRES   REMARKS
CULIACAN       CLOUDY    73  63  68 CALM      29.85R
HERMOSILLO     CLEAR     75  30  19 S3        29.86R
LOS MOCHIS       N/A    N/A N/A N/A MISG        N/A
OBREGON          N/A    N/A N/A N/A MISG        N/A

NORTHEASTERN MEXICO

CITY           SKY/WX    TMP DP  RH WIND       PRES   REMARKS
CHIHUAHUA      CLEAR     66  23  19 SW14      29.95R
MONTERREY      CLOUDY    63  61  94 CALM      30.00S
REYNOSA        MOCLDY    66  55  68 NE7       29.99R
TORREON        MOCLDY    79  46  31 NE7       29.93R
CD. VICTORIA   DRIZZLE   66  66 100 N8        30.00R FOG

WESTERN MEXICO

CITY           SKY/WX    TMP DP  RH WIND       PRES   REMARKS
AGUASCALIENTES CLEAR     64  27  24 NW7       30.15R
DEL BAJIO      CLEAR     68  43  40 N5        30.20R
GUADALAJARA    PTCLDY    70  46  43 W10       30.09R
MAZATLAN       CLEAR     64  59  82 E8        29.84R
P. VALLARTA    CLEAR     75  70  83 CALM      29.85S
ZACATECAS      CLEAR     63  28  27 W15       30.19R

CENTRAL MEXICO

CITY           SKY/WX    TMP DP  RH WIND       PRES   REMARKS
MEXICO CITY    PTCLDY    72  43  35 S6        30.25R
MORELIA        CLEAR     63  48  59 SW6       30.16R
PUEBLA         PTCLDY    64  41  42 S6        30.24R
QUERETARO      PTCLDY    70  57  64 E16       30.21R
S. LUIS POTOSI CLEAR     64  37  36 CALM      30.13R
TAMPICO        PTCLDY    79  73  83 NE12      29.88R
TOLUCA         PTCLDY    57  39  51 N7        30.35R

SOUTHERN MEXICO

CITY           SKY/WX    TMP DP  RH WIND       PRES   REMARKS
ACAPULCO       CLEAR     81  75  83 W6        29.83R
OAXACA         PTCLDY    73  54  49 SE6       30.14R
VERACRUZ       PTCLDY    82  75  78 NE9       29.84R

YUCATAN PENINSULA

CITY           SKY/WX    TMP DP  RH WIND       PRES   REMARKS
CANCUN         PTCLDY    81  75  83 SE12      29.89S
COZUMEL        PTCLDY    75  73  94 SE8       29.89S
MERIDA         CLEAR     84  72  65 NE6       29.85R
TAPACHULA      CLOUDY    79  75  89 CALM      29.89R
TUX. GUTIERREZ LGT RAIN  73  70  88 CALM      29.94R
VILLAHERMOSA   CLEAR     81  77  89 CALM      29.85R

CENTRAL AMERICA

CITY           SKY/WX    TMP DP  RH WIND       PRES   REMARKS
MANAGUA          N/A     82  72  69 CALM      29.80R

CARIBBEAN

CITY           SKY/WX    TMP DP  RH WIND       PRES   REMARKS
ARUBA          PTCLDY    81  73  78 E17       29.89F
CURACAO        PTCLDY    81  72  74 E13       29.92F
KINGSTON       PTCLDY    82  73  74 SE15      29.97R
SAN JUAN       PTCLDY    79  72  78 E6        30.04S
SANTO DOMINGO  PTCLDY    79  72  78 SE6       30.00S

$$



USA.gov is the U.S. government's official web portal to all federal, state and local government web resources and services.